Wind_Speed
29 29 28 28 29 30 31 32 33 33 33 34 35 35 34 33 32 32 32 33 32 32 32 32 33 34 35 34 32 32 31 31 32 33 34 35 36 37 38 39 40 41 41
31 31 31 30 30 30 31 32 33 33 34 35 36 36 35 34 34 33 34 34 34 34 34 34 35 35 36 36 35 34 34 34 35 37 38 39 40 40 41 42 42 43 44
34 34 33 32 32 33 33 33 35 35 34 35 35 35 35 35 35 34 33 33 33 34 35 35 36 37 38 38 38 38 38 38 39 41 42 44 45 46 47 48 48 49 49
36 36 35 35 35 35 35 36 36 35 34 34 34 35 35 35 34 33 33 33 34 35 36 37 38 39 40 41 42 42 42 42 43 45 47 49 50 51 52 53 54 55 55
37 37 37 37 37 37 37 37 37 36 35 35 35 36 35 35 35 35 35 36 37 38 39 40 41 42 44 44 44 45 45 46 48 49 51 53 54 56 57 57 57 58 58
36 37 37 38 38 39 39 39 39 38 37 37 38 37 37 37 38 38 39 40 41 42 43 44 44 46 47 47 48 48 49 51 52 53 55 56 57 59 59 60 60 59 59
36 36 37 39 40 40 39 40 39 39 39 40 40 40 41 42 42 42 42 43 44 44 45 46 47 49 50 51 51 52 53 55 57 58 59 60 60 61 61 62 62 62 62
37 37 38 39 40 40 40 40 40 39 40 41 42 43 44 45 45 46 46 46 46 47 47 48 50 52 54 54 54 55 57 59 61 63 63 63 64 64 64 64 65 65 66
39 38 38 39 40 40 40 40 40 40 41 43 44 46 47 48 47 47 47 47 48 49 50 51 53 55 57 57 58 60 62 63 64 66 66 66 67 68 69 69 70 70 71
39 38 38 39 40 40 41 41 41 42 43 44 46 48 49 50 49 48 47 48 49 50 52 53 55 57 59 61 64 65 66 67 68 69 70 72 73 73 74 74 74 75 76
38 38 38 39 40 41 41 42 43 44 46 47 48 49 50 50 49 49 48 49 51 52 53 54 55 58 61 64 66 67 69 70 72 74 75 75 76 76 77 78 78 79 79
39 38 38 39 40 40 41 43 44 46 48 49 50 50 50 49 50 51 51 51 51 52 54 56 59 61 63 64 66 68 70 72 73 75 76 77 78 79 80 81 82 83 84
39 39 39 40 40 41 41 43 45 46 47 48 49 49 50 50 52 53 54 54 53 53 56 59 62 65 66 67 68 69 71 72 74 76 77 79 80 82 84 86 88 90 92
39 39 40 40 41 41 42 43 45 46 47 47 48 49 51 52 54 55 56 56 56 57 60 62 64 67 68 69 70 72 73 74 76 78 80 83 86 89 92 95 97 100 103
40 40 40 40 40 41 42 44 44 45 46 47 49 51 52 54 54 55 57 59 62 63 63 64 66 67 69 70 72 74 75 78 81 84 87 91 95 99 102 104 106 107 106
40 40 39 39 39 41 42 43 44 45 48 49 51 52 54 55 56 57 60 63 65 67 68 67 68 70 71 73 75 78 81 84 88 93 98 102 104 106 106 103 98 91 84
39 38 37 38 39 40 42 43 45 47 49 51 52 54 55 56 58 61 64 65 67 68 69 68 70 72 75 77 80 84 89 93 97 101 104 104 102 97 89 80 70 63 58
38 37 37 38 39 40 42 44 46 49 50 52 54 56 57 59 62 64 65 66 67 68 70 70 72 75 79 83 87 91 96 100 101 100 96 90 82 73 63 55 49 45 43
37 36 37 38 39 41 43 46 49 50 52 54 56 58 61 63 64 65 66 67 68 70 73 75 76 80 85 91 95 98 99 96 91 83 76 68 60 52 47 43 40 38 37
36 37 38 38 40 43 46 48 50 52 54 57 59 61 63 64 65 66 66 68 70 73 77 80 83 87 93 97 99 97 89 79 70 63 57 52 47 44 41 40 38 37 36
36 37 39 41 43 45 47 49 51 53 56 59 61 62 64 64 65 66 68 71 74 78 82 86 91 95 98 97 92 83 71 60 54 52 48 46 44 42 42 41 39 38 37
36 39 41 43 45 46 48 50 52 56 58 60 61 62 62 63 65 68 71 75 79 84 89 94 97 98 94 86 75 64 56 50 47 47 45 43 43 41 41 41 40 39 38
37 41 44 44 45 46 48 52 55 57 58 59 60 61 62 64 68 71 74 79 85 92 97 99 96 89 79 67 60 53 50 48 45 46 45 40 40 40 40 41 40 39 38
39 41 43 43 44 47 51 53 55 56 57 58 59 61 64 67 71 75 80 85 91 96 96 91 83 72 62 55 51 49 47 45 42 43 45 41 38 37 38 40 40 38 36
39 40 41 43 46 49 51 53 54 55 56 58 61 64 68 71 76 81 86 91 93 91 85 74 64 56 52 50 49 46 45 43 41 40 43 41 39 37 35 37 39 37 34
37 39 41 44 47 49 51 52 53 54 57 60 64 68 73 77 82 88 92 92 87 77 66 57 52 49 48 46 46 46 45 44 42 39 40 39 37 37 31 32 37 36 33
Wind_Direction
279 281 281 280 278 277 279 280 281 279 276 273 272 275 278 280 282 282 279 278 278 281 285 289 292 295 296 296 293 291 289 288 286 284 282 280 279 278 276 274 273 271 270
280 281 281 280 279 279 281 283 284 283 279 275 274 275 277 279 282 282 281 280 280 282 286 290 293 295 297 296 293 290 288 288 287 286 285 285 284 282 280 278 276 274 272
280 282 282 280 280 280 282 284 284 283 281 280 279 278 279 281 283 284 283 282 283 286 289 292 294 297 298 297 293 289 287 286 286 286 285 285 284 282 281 280 278 276 274
278 280 281 280 280 281 282 284 284 283 282 282 282 280 281 284 285 286 285 285 287 290 292 294 296 297 298 296 293 289 286 285 285 285 284 283 282 281 280 279 278 277 275
277 279 280 280 281 281 281 283 284 282 281 282 282 282 282 285 287 287 287 288 289 291 293 295 296 297 297 295 292 288 285 284 284 284 284 284 283 282 280 279 278 276 274
277 280 281 281 281 282 282 283 284 282 280 280 281 282 283 285 287 288 289 289 291 292 293 294 295 295 296 294 291 287 284 283 284 284 285 285 284 283 282 281 279 277 275
278 280 281 280 281 281 281 283 284 283 281 281 281 282 284 287 287 288 289 290 290 291 292 293 293 294 294 293 289 286 284 284 284 285 286 286 285 284 283 282 280 278 276
277 279 281 282 282 281 280 281 283 283 283 282 283 284 286 287 288 289 289 289 290 291 291 292 292 293 293 292 290 288 287 286 286 286 287 286 286 285 284 283 281 280 278
276 280 283 283 283 281 279 280 282 283 283 283 284 286 287 287 288 288 289 290 292 293 294 294 294 294 294 293 292 292 291 290 289 289 289 289 288 287 286 284 283 281 279
277 280 281 281 281 280 279 280 282 283 283 284 285 287 288 289 289 290 292 293 294 294 295 295 295 296 296 297 296 296 294 293 292 292 291 290 289 288 287 285 284 282 280
275 277 279 280 280 280 281 281 283 284 285 286 287 287 288 289 290 291 293 293 294 294 294 294 294 295 296 296 296 295 294 294 293 292 291 290 289 288 287 285 283 281 279
274 276 278 280 281 281 282 283 285 286 287 288 289 290 290 291 292 293 293 293 293 294 294 295 296 296 295 294 293 292 292 291 291 290 290 289 287 286 285 284 282 280 278
271 274 277 279 281 282 283 285 287 289 290 290 291 292 293 293 294 295 294 294 294 295 296 296 296 296 295 294 293 293 292 292 291 290 290 288 287 286 284 283 281 280 278
270 273 276 279 282 284 286 288 289 290 291 292 293 294 295 295 296 296 296 296 296 297 298 298 297 297 297 297 296 296 295 294 292 291 289 288 287 286 284 283 282 280 279
268 272 276 281 284 287 288 289 290 291 293 294 294 295 295 296 296 296 297 298 299 299 299 299 298 298 298 298 298 297 296 294 293 292 291 290 289 288 287 286 284 282 280
267 272 278 282 286 288 289 290 292 294 295 295 295 296 297 297 298 299 299 300 300 301 301 301 301 301 301 300 299 299 298 297 296 295 294 294 293 291 290 288 287 285 282
268 274 279 283 286 288 290 293 294 295 296 296 296 297 298 299 300 300 301 302 303 303 304 304 304 303 303 302 301 301 300 300 299 298 297 296 294 293 291 289 287 284 280
270 275 280 284 286 289 293 294 295 296 296 296 298 299 300 301 301 302 303 304 304 305 305 305 304 304 303 303 303 302 302 301 300 299 297 296 295 294 292 289 286 282 279
271 276 281 284 288 292 294 294 295 295 296 297 299 300 301 302 303 304 305 306 306 306 306 306 306 306 305 305 304 304 303 302 300 298 297 297 297 295 292 288 285 282 281
273 278 282 286 290 292 292 293 294 295 297 299 301 302 303 304 305 306 307 307 307 308 308 308 308 307 306 305 305 305 304 302 300 298 299 298 296 295 291 288 286 284 284
275 280 284 286 289 290 291 292 294 296 298 300 302 303 304 306 307 307 308 308 308 308 308 308 308 307 307 306 306 305 304 302 300 298 298 297 295 293 289 288 286 285 286
278 282 284 285 288 290 292 294 295 297 299 301 303 304 306 307 307 308 309 309 309 309 309 308 308 308 308 308 307 306 304 302 299 296 296 294 293 291 288 286 285 284 285
279 282 284 287 290 292 294 295 297 299 301 303 304 305 306 307 308 309 310 310 310 310 309 309 309 310 309 308 307 307 305 303 301 297 294 292 290 289 287 285 283 283 283
280 284 287 290 292 293 295 297 300 302 303 304 305 306 307 308 309 309 310 310 310 310 310 310 310 310 309 308 308 307 306 303 303 300 296 294 291 289 287 286 284 282 280
286 288 290 292 294 296 298 300 302 304 305 306 307 308 309 310 310 310 310 311 311 311 311 311 310 311 311 311 311 310 309 308 306 304 300 298 294 290 287 285 284 282 279
289 291 292 294 296 298 301 302 304 305 307 308 310 311 311 311 311 311 311 311 312 312 311 311 312 313 314 313 313 312 311 310 309 307 302 301 297 291 286 282 282 280 277
Height
5808 5809 5809 5809 5808 5808 5807 5808 5807 5807 5807 5806 5806 5805 5805 5804 5803 5802 5800 5799 5798 5797 5796 5794 5793 5791 5790 5788 5786 5784 5782 5781 5780 5779 5779 5778 5778 5777 5777 5777 5777 5777 5777
5803 5803 5803 5803 5802 5801 5801 5801 5801 5800 5800 5799 5799 5798 5797 5797 5795 5795 5792 5791 5790 5789 5788 5787 5785 5784 5782 5780 5778 5776 5774 5773 5772 5771 5770 5769 5768 5768 5767 5767 5767 5767 5767
5797 5797 5797 5796 5795 5795 5794 5794 5794 5793 5793 5792 5791 5791 5790 5789 5788 5786 5785 5783 5782 5781 5780 5778 5777 5775 5773 5771 5769 5768 5766 5764 5763 5762 5761 5759 5758 5758 5757 5756 5756 5755 5755
5790 5790 5790 5789 5788 5788 5787 5787 5787 5786 5785 5785 5784 5784 5783 5781 5779 5778 5777 5775 5774 5773 5771 5769 5767 5765 5763 5761 5759 5757 5756 5754 5753 5751 5750 5748 5747 5746 5745 5744 5743 5742 5742
5783 5783 5783 5782 5782 5781 5781 5780 5779 5778 5778 5778 5777 5776 5775 5773 5771 5770 5768 5767 5765 5764 5762 5760 5757 5755 5753 5750 5748 5746 5744 5742 5741 5740 5738 5736 5734 5733 5731 5730 5729 5728 5727
5777 5776 5776 5775 5774 5774 5774 5772 5771 5770 5770 5770 5770 5768 5767 5765 5763 5761 5759 5758 5756 5754 5751 5749 5747 5744 5742 5739 5736 5734 5732 5730 5728 5726 5724 5722 5720 5718 5715 5714 5713 5712 5711
5770 5769 5769 5768 5767 5767 5766 5765 5764 5762 5762 5761 5761 5760 5758 5756 5754 5752 5750 5747 5745 5743 5740 5738 5735 5732 5729 5726 5724 5721 5718 5716 5713 5711 5708 5706 5703 5701 5699 5697 5695 5694 5693
5762 5762 5761 5760 5760 5759 5758 5757 5756 5755 5753 5752 5751 5750 5749 5748 5745 5741 5739 5736 5733 5731 5728 5725 5722 5719 5716 5713 5710 5707 5704 5701 5697 5694 5691 5688 5685 5683 5680 5678 5676 5675 5674
5754 5755 5754 5753 5752 5751 5750 5749 5748 5747 5745 5743 5741 5740 5738 5736 5735 5732 5728 5724 5721 5718 5715 5711 5708 5704 5701 5698 5694 5691 5687 5684 5679 5676 5672 5668 5665 5662 5660 5658 5656 5654 5653
5746 5747 5746 5745 5744 5743 5742 5741 5739 5738 5736 5735 5732 5729 5727 5724 5722 5720 5717 5713 5709 5705 5702 5698 5693 5689 5684 5680 5676 5672 5668 5664 5659 5655 5651 5647 5643 5640 5637 5634 5632 5630 5628
5738 5738 5738 5737 5736 5735 5734 5732 5730 5728 5726 5725 5722 5719 5716 5713 5709 5707 5705 5702 5697 5693 5689 5685 5680 5676 5671 5665 5660 5654 5649 5645 5640 5635 5631 5626 5621 5617 5614 5610 5607 5605 5602
5730 5730 5729 5729 5728 5726 5725 5723 5721 5719 5716 5714 5711 5707 5704 5701 5697 5694 5692 5689 5686 5681 5676 5671 5666 5661 5656 5651 5646 5640 5634 5628 5623 5617 5611 5606 5601 5596 5591 5587 5583 5579 5576
5722 5722 5721 5720 5719 5717 5715 5713 5711 5709 5706 5703 5699 5696 5692 5688 5685 5681 5677 5674 5672 5668 5663 5657 5650 5644 5639 5634 5628 5622 5616 5609 5603 5596 5590 5583 5577 5571 5566 5561 5556 5551 5546
5713 5713 5713 5712 5710 5709 5707 5705 5702 5699 5696 5692 5689 5685 5681 5676 5672 5667 5663 5659 5656 5654 5648 5641 5634 5626 5620 5614 5607 5601 5595 5587 5580 5573 5566 5559 5552 5545 5538 5531 5524 5518 5511
5705 5704 5704 5703 5702 5700 5698 5696 5693 5689 5686 5682 5678 5673 5669 5665 5660 5655 5649 5643 5639 5635 5632 5625 5616 5609 5601 5595 5587 5580 5573 5565 5556 5548 5539 5530 5522 5513 5504 5495 5487 5478 5470
5696 5696 5696 5695 5693 5692 5689 5686 5683 5679 5676 5671 5667 5662 5657 5651 5646 5641 5635 5629 5622 5616 5611 5606 5597 5589 5581 5573 5565 5556 5548 5539 5529 5517 5506 5495 5485 5475 5465 5455 5445 5437 5430
5688 5688 5687 5686 5685 5682 5680 5677 5673 5669 5664 5660 5655 5650 5645 5639 5633 5626 5620 5613 5605 5597 5592 5587 5577 5568 5558 5550 5542 5532 5521 5511 5499 5485 5472 5459 5447 5437 5428 5420 5414 5409 5405
5679 5679 5679 5677 5675 5673 5670 5667 5663 5658 5653 5648 5643 5637 5631 5625 5619 5611 5604 5596 5588 5580 5572 5567 5559 5548 5538 5527 5518 5508 5495 5481 5467 5453 5440 5428 5416 5408 5402 5397 5394 5391 5389
5671 5671 5670 5668 5666 5663 5660 5656 5652 5647 5641 5636 5630 5624 5618 5611 5603 5595 5587 5579 5570 5561 5552 5545 5538 5527 5515 5502 5492 5481 5467 5452 5436 5423 5413 5404 5396 5390 5385 5382 5379 5377 5376
5663 5663 5661 5659 5656 5653 5650 5645 5641 5635 5629 5623 5617 5610 5603 5595 5587 5579 5571 5561 5552 5543 5532 5523 5514 5504 5491 5477 5463 5452 5441 5426 5412 5400 5394 5387 5382 5378 5373 5370 5367 5365 5363
5655 5654 5652 5650 5647 5643 5639 5634 5629 5624 5618 5611 5604 5596 5588 5580 5571 5563 5554 5544 5534 5524 5513 5502 5492 5480 5466 5451 5438 5425 5415 5406 5395 5384 5381 5375 5370 5366 5361 5358 5355 5353 5351
5647 5645 5643 5640 5637 5632 5628 5623 5618 5612 5605 5598 5591 5582 5574 5565 5556 5547 5537 5526 5514 5502 5491 5479 5467 5453 5439 5425 5413 5403 5394 5389 5384 5373 5368 5364 5357 5354 5349 5346 5343 5341 5339
5638 5636 5634 5630 5627 5622 5617 5612 5606 5600 5592 5585 5576 5568 5560 5550 5540 5531 5521 5509 5495 5479 5465 5453 5441 5426 5415 5404 5396 5388 5380 5373 5367 5359 5354 5353 5347 5342 5337 5333 5330 5329 5326
5629 5627 5624 5620 5616 5612 5606 5600 5594 5587 5579 5571 5562 5553 5544 5534 5524 5514 5504 5491 5476 5459 5444 5430 5418 5407 5396 5387 5380 5374 5367 5361 5356 5345 5338 5338 5335 5331 5326 5320 5316 5315 5314
5620 5617 5614 5610 5606 5601 5595 5588 5581 5573 5565 5557 5548 5538 5528 5518 5507 5496 5485 5472 5456 5439 5422 5408 5398 5389 5382 5374 5366 5360 5353 5347 5343 5336 5326 5323 5320 5317 5315 5309 5304 5302 5301
5611 5608 5604 5600 5595 5589 5583 5576 5568 5561 5553 5544 5534 5522 5511 5500 5488 5474 5462 5449 5435 5420 5407 5395 5385 5376 5369 5362 5354 5347 5341 5334 5329 5324 5316 5311 5306 5302 5303 5299 5293 5290 5289